Regional Weather Roundup
Issued by NWS

Home | Current Version | Previous Version | Graphics & Text | Print | Product List | Glossary On
Versions: 1 2 3 4 5 6 7 8 9 10 11 12 13 14 15 16 17 18 19 20 21 22 23 24 25 26 27 28 29 30 31 32 33 34 35 36 37 38 39 40 41 42 43 44 45 46 47 48 49 50
000
ASUS45 KBOI 201610
RWRID
WEATHER ROUNDUP FOR IDAHO
NATIONAL WEATHER SERVICE BOISE ID
1000 AM MDT WED AUG 20 2014

NOTE: "FAIR" INDICATES FEW OR NO CLOUDS BELOW 12000 FEET
WITH NO SIGNIFICANT WEATHER AND/OR OBSTRUCTIONS TO VISIBILITY

IDZ012-014-201700-
SOUTHWEST IDAHO


CITY           SKY/WX    TMP DP  RH WIND       PRES   REMARKS
BOISE          PTSUNNY   71  49  45 W3        29.88
CALDWELL       PTSUNNY   70  46  43 CALM      29.88
MOUNTAIN HOME  MOSUNNY   71  52  50 E9        29.88
$$

IDZ016-017-201700-
SOUTHCENTRAL IDAHO


CITY           SKY/WX    TMP DP  RH WIND       PRES   REMARKS
BURLEY         SUNNY     68  51  54 SE5       29.92
JEROME         SUNNY     68  56  65 NE8       29.93
TWIN FALLS     SUNNY     70  53  54 NE6       29.93
$$

IDZ019>023-201700-
SOUTHEAST IDAHO


CITY           SKY/WX    TMP DP  RH WIND       PRES   REMARKS
IDAHO FALLS    MOSUNNY   64  55  72 CALM      29.99
POCATELLO      MOSUNNY   68  54  60 VRB5      29.98
REXBURG        PTSUNNY   58  52  80 CALM      30.00
$$

IDZ006-010-011-018-031-032-201700-
CENTRAL IDAHO MOUNTAINS


CITY           SKY/WX    TMP DP  RH WIND       PRES   REMARKS
MCCALL         PTSUNNY   61  45  55 CALM      29.94
HAILEY         MOSUNNY   61  48  63 NW9       30.01
STANLEY          N/A     56  43  61 VRB5      30.05
SALMON         MOSUNNY   61  48  63 CALM      29.93
CHALLIS        MOSUNNY   59  50  72 NE3       29.98
$$

IDZ002-004-006-007-026-201700-
NORTHERN IDAHO


CITY           SKY/WX    TMP DP  RH WIND       PRES   REMARKS
LEWISTON       PTSUNNY   71  55  56 E6        29.82
LOWELL           N/A     65  59  81 CALM      29.86
COEUR D`ALENE  MOSUNNY   66  55  68 S10       29.82
MULLAN PASS    CLOUDY    50  49  96 VRB5      29.98
$$



USA.gov is the U.S. government's official web portal to all federal, state and local government web resources and services.